Regional Weather Roundup
Issued by NWS Goodland, KS

Home | Current Version | Previous Version | Graphics & Text | Print | Product List | Glossary On
Versions: 1 2 3 4 5 6 7 8 9 10 11 12 13 14 15 16 17 18 19 20 21 22 23 24 25 26 27 28 29 30 31 32 33 34 35 36 37 38 39 40 41 42 43 44 45 46 47 48 49 50
919
ASUS43 KGLD 230808
RWRGLD

GOODLAND FORECAST AREA HOURLY WEATHER ROUNDUP
NATIONAL WEATHER SERVICE GOODLAND KS
200 AM MDT TUE MAY 23 2017

...OFFICIAL OBSERVATIONS...

CITY           SKY/WX    TMP DP  RH WIND       PRES   REMARKS
GOODLAND KS    CLEAR     43  40  89 NW15      30.12R
HILL CITY KS   MOCLDY    49  47  93 NW10      30.06S
IMPERIAL NEB   CLEAR     43  38  82 NW14      30.12F
MCCOOK NEB     PTCLDY    44  42  93 NW13      30.09S
AKRON CO       CLEAR     38  34  85 NW12      30.19R
BURLINGTON CO  CLEAR     42  39  89 NW13      30.15S
LIMON CO       CLOUDY    39  37  92 N15       30.20S
$$

...UNOFFICIAL OBSERVATIONS...

CITY           SKY/WX    TMP DP  RH WIND       PRES   REMARKS
LENORA KS        N/A     45  32  60 MISG        N/A
NORTON KS      CLEAR     48  43  81 NW12      30.05S
SHARON SPRINGS   N/A     44  41  89 NW12        N/A
TRENTON NEB      N/A     42  32  68 NW6         N/A
KIT CARSON CO    N/A     43  37  80 MISG        N/A
$$




USA.gov is the U.S. government's official web portal to all federal, state and local government web resources and services.